Regional Weather Roundup
Issued by NWS

Home | Current Version | Previous Version | Text Only | Print | Product List | Glossary Off
Versions: 1 2 3 4 5 6 7 8 9 10 11 12 13 14 15 16 17 18 19 20 21 22 23 24 25 26 27

000
ASUS45 KCYS 300610
RWRWY

WYOMING REGIONAL WEATHER ROUNDUP
NATIONAL WEATHER SERVICE CHEYENNE WY
1200 AM MDT THU OCT 30 2014

NOTE:  "FAIR" INDICATES FEW OR NO CLOUDS BELOW 12,000 FEET
WITH NO SIGNIFICANT WEATHER AND/OR OBSTRUCTIONS TO VISIBILITY.

WYZ001-300700-
YELLOWSTONE NATIONAL PARK

CITY           SKY/WX    TMP DP  RH WIND       PRES   REMARKS
LK YELLOWSTONE   N/A     26  23  88 CALM      30.35
6HR MIN TEMP:  25; 6HR MAX TEMP:  37;

W YELLOWSTONE  NOT AVBL

$$
WYZ002>013-054>058-071-098>099-300700-
NORTHERN WYOMING

CITY           SKY/WX    TMP DP  RH WIND       PRES   REMARKS
JACKSON        PTCLDY    34  30  86 N9        30.32R WCI  26
CODY           CLEAR     37  25  60 CALM      30.24
GREYBULL       CLEAR     39  22  50 W7        30.20S WCI  34
6HR MIN TEMP:  39; 6HR MAX TEMP:  59;

WORLAND        CLEAR     36  22  56 SW8       30.23R WCI  30
6HR MIN TEMP:  36; 6HR MAX TEMP:  59;

SHERIDAN       MOCLDY    40  26  57 SW8       30.21R WCI  34
6HR MIN TEMP:  40; 6HR MAX TEMP:  57;

BUFFALO        CLEAR     41  23  48 NW8       30.24R
6HR MIN TEMP:  39; 6HR MAX TEMP:  52;

GILLETTE       CLEAR     43  26  51 W13       30.19R
6HR MIN TEMP:  37; 6HR MAX TEMP:  55;

HULETT         FAIR      43  32  65 SW3       30.18
NEWCASTLE      FAIR      37  27  65 N10       30.18  WCI  30

$$
WYZ014>020-022>026-101>103-300700-
CENTRAL WYOMING

CITY           SKY/WX    TMP DP  RH WIND       PRES   REMARKS
BIG PINEY      CLEAR     25  20  81 NE5       30.35R WCI  19
6HR MIN TEMP:  25; 6HR MAX TEMP:  47;

PINEDALE       PTCLDY    27  23  86 W5        30.35  WCI  21
DUBOIS         FAIR      32  27  80 NW6       30.29S WCI  26
LANDER         PTCLDY    37  26  64 E7        30.25S WCI  32
6HR MIN TEMP:  37; 6HR MAX TEMP:  55;

RIVERTON       CLEAR     41  27  57 SW8       30.26R
6HR MIN TEMP:  41; 6HR MAX TEMP:  54;

CASPER         CLEAR     33  19  56 W6        30.26R WCI  28
6HR MIN TEMP:  29; 6HR MAX TEMP:  50;

DOUGLAS        CLEAR     38  23  55 N3        30.25R
6HR MIN TEMP:  38; 6HR MAX TEMP:  56;


$$
WYZ021-027>030-104>119-300700-
SOUTHERN WYOMING

CITY           SKY/WX    TMP DP  RH WIND       PRES   REMARKS
EVANSTON       PTCLDY    42  23  46 SW6       30.35S
6HR MIN TEMP:  41; 6HR MAX TEMP:  53;

KEMMERER       CLEAR     39  30  70 CALM      30.35F
FORT BRIDGER   FAIR      44  27  51 W10       30.37S
ROCK SPRINGS   PTCLDY    37  27  67 S8        30.34R WCI  31
6HR MIN TEMP:  37; 6HR MAX TEMP:  51;

RAWLINS        PTCLDY    37  23  56 CALM      30.31R
6HR MIN TEMP:  37; 6HR MAX TEMP:  51;

SARATOGA       MOCLDY    39  27  60 W12       30.33R WCI  32
LARAMIE        PTCLDY    35  23  61 NW9       30.28S WCI  28
6HR MIN TEMP:  34; 6HR MAX TEMP:  50;

CHEYENNE       CLEAR     47  24  40 N14       30.24R
6HR MIN TEMP:  45; 6HR MAX TEMP:  56;

TORRINGTON     PTCLDY    44  23  43 NW12      30.19R
6HR MIN TEMP:  40; 6HR MAX TEMP:  60;

PINE BLUFFS    FAIR      32  27  80 W3        30.22R

$$



USA.gov is the U.S. government's official web portal to all federal, state and local government web resources and services.